Weather History for Newberry, SC

Change the Weather History Date:

Friday, August 23, 2013

  Actual Average (KFDW) Record (KFDW)
Temperature  
Mean Temperature 78 °F -  
Max Temperature 87 °F 86 °F 95 °F (2014)
Min Temperature 68 °F 66 °F 69 °F (2011)
Cooling Degree Days 12    
Growing Degree Days 28 (Base 50)    
Moisture  
Dew Point 71 °F    
Average Humidity 86    
Maximum Humidity 100    
Minimum Humidity 52    
Precipitation  
Precipitation 0.00 in - - ()
Sea Level Pressure  
Sea Level Pressure 30.07 in    
Wind  
Wind Speed 2 mph (WNW)    
Max Wind Speed 9 mph    
Max Gust Speed -    
Visibility 8 miles    
Events Fog , Rain , Thunderstorm    
Averages and records for this station are not official NWS values.
T = Trace of Precipitation, MM = Missing Value Source: NWS Daily Summary

Daily Weather History Graph

Daily Weather History Graph

Search for Another Location

Airport:

Trip Planner

Search our weather history database for the weather conditions in past years. The results will help you decide how hot, cold, wet, or windy it might be!

Date:

Astronomy

Aug. 23, 2013 Rise Set
Actual Time 6:53 AM EDT 8:03 PM EDT
Civil Twilight 6:27 AM EDT 8:29 PM EDT
Nautical Twilight 5:56 AM EDT 9:00 PM EDT
Astronomical Twilight 5:24 AM EDT 9:32 PM EDT
Moon 9:33 PM EDT (8/23) 9:37 AM EDT (8/23)
Length of Visible Light 14h 02m
Length of Day
13h 10m
Waning Gibbous, 91% of the Moon is Illuminated
Aug 23
Waning Gibbous
Aug 28
Last Quarter
Sep 5
New
Sep 12
First Quarter
Sep 19
Full

Hourly Weather History & Observations

Time (EDT) Temp. Heat Index Dew Point Humidity Pressure Visibility Wind Dir Wind Speed Gust Speed Precip Events Conditions
12:15 AM 69.8 °F - 69.8 °F 100% 30.09 in 10.0 mi Calm Calm - N/A   Clear
12:35 AM 69.8 °F - 69.8 °F 100% 30.09 in 10.0 mi Calm Calm - N/A   Clear
12:55 AM 69.8 °F - 69.8 °F 100% 30.08 in 10.0 mi Calm Calm - N/A   Clear
1:15 AM 69.8 °F - 69.8 °F 100% 30.08 in 10.0 mi Calm Calm - N/A   Clear
1:35 AM 69.8 °F - 69.8 °F 100% 30.08 in 10.0 mi Calm Calm - N/A   Clear
1:55 AM 69.8 °F - 69.8 °F 100% 30.08 in 7.0 mi Calm Calm - N/A   Clear
2:15 AM 69.8 °F - 69.8 °F 100% 30.08 in 10.0 mi Calm Calm - N/A   Clear
2:35 AM 69.8 °F - 69.8 °F 100% 30.08 in 7.0 mi SSW 4.6 mph - N/A   Clear
2:55 AM 69.8 °F - 69.8 °F 100% 30.07 in 10.0 mi WSW 3.5 mph - N/A   Clear
3:15 AM 69.8 °F - 69.8 °F 100% 30.07 in 7.0 mi Calm Calm - N/A   Clear
3:35 AM 69.8 °F - 69.8 °F 100% 30.06 in 7.0 mi South 5.8 mph - N/A   Clear
3:55 AM 69.8 °F - 69.8 °F 100% 30.06 in 7.0 mi SSW 3.5 mph - N/A   Clear
4:15 AM 69.8 °F - 69.8 °F 100% 30.06 in 7.0 mi SW 4.6 mph - N/A   Clear
4:35 AM 69.8 °F - 69.8 °F 100% 30.06 in 7.0 mi Calm Calm - N/A   Clear
4:55 AM 69.8 °F - 69.8 °F 100% 30.05 in 5.0 mi Calm Calm - N/A   Clear
5:15 AM 69.8 °F - 69.8 °F 100% 30.05 in 5.0 mi Calm Calm - N/A   Clear
5:35 AM 68.0 °F - 68.0 °F 100% 30.06 in 7.0 mi SW 3.5 mph - N/A   Clear
5:55 AM 69.8 °F - 69.8 °F 100% 30.06 in 4.0 mi SSW 3.5 mph - N/A   Scattered Clouds
6:15 AM 69.8 °F - 69.8 °F 100% 30.06 in 2.0 mi Calm Calm - N/A   Overcast
6:35 AM 69.8 °F - 69.8 °F 100% 30.06 in 0.5 mi SSW 4.6 mph - N/A Fog Fog
6:55 AM 69.8 °F - 69.8 °F 100% 30.07 in 0.2 mi Calm Calm - N/A Fog Fog
7:15 AM 69.8 °F - 69.8 °F 100% 30.08 in 0.2 mi SW 4.6 mph - N/A Fog Fog
7:35 AM 69.8 °F - 69.8 °F 100% 30.08 in 0.2 mi SW 5.8 mph - N/A Fog Fog
7:55 AM 69.8 °F - 69.8 °F 100% 30.09 in 0.5 mi Calm Calm - N/A Fog Fog
8:15 AM 71.6 °F - 71.6 °F 100% 30.10 in 1.2 mi Calm Calm - N/A   Overcast
8:35 AM 71.6 °F - 71.6 °F 100% 30.11 in 4.0 mi Calm Calm - N/A   Overcast
8:55 AM 71.6 °F - 71.6 °F 100% 30.11 in 5.0 mi West 4.6 mph - N/A   Overcast
9:15 AM 71.6 °F - 71.6 °F 100% 30.11 in 7.0 mi WSW 4.6 mph - N/A   Mostly Cloudy
9:35 AM 71.6 °F - 71.6 °F 100% 30.11 in 10.0 mi West 3.5 mph - N/A   Scattered Clouds
9:55 AM 73.4 °F - 73.4 °F 100% 30.11 in 10.0 mi WSW 3.5 mph - N/A   Clear
10:15 AM 73.4 °F - 73.4 °F 100% 30.11 in 10.0 mi West 3.5 mph - N/A   Clear
10:35 AM 77.0 °F - 73.4 °F 89% 30.11 in 10.0 mi WNW 4.6 mph - N/A   Clear
10:55 AM 78.8 °F - 75.2 °F 89% 30.12 in 10.0 mi Calm Calm - N/A   Clear
11:15 AM 78.8 °F - 75.2 °F 89% 30.11 in 10.0 mi NNW 4.6 mph - N/A   Clear
11:35 AM 80.6 °F 85.4 °F 73.4 °F 79% 30.11 in 10.0 mi West 4.6 mph - N/A   Clear
11:55 AM 80.6 °F 85.4 °F 73.4 °F 79% 30.10 in 10.0 mi West 3.5 mph - N/A   Clear
12:15 PM 82.4 °F 87.2 °F 71.6 °F 70% 30.09 in 10.0 mi Calm Calm - N/A   Clear
12:35 PM 82.4 °F 87.2 °F 71.6 °F 70% 30.09 in 10.0 mi West 3.5 mph - N/A   Clear
12:55 PM 84.2 °F 89.6 °F 71.6 °F 66% 30.08 in 10.0 mi Calm Calm - N/A   Clear
1:15 PM 86.0 °F 91.8 °F 71.6 °F 62% 30.08 in 10.0 mi Calm Calm - N/A   Clear
1:55 PM 86.0 °F 91.8 °F 71.6 °F 62% 30.06 in 10.0 mi North 4.6 mph - N/A   Clear
2:15 PM 87.8 °F 93.8 °F 71.6 °F 58% 30.06 in 10.0 mi NNW 3.5 mph - N/A   Scattered Clouds
2:35 PM 87.8 °F 93.8 °F 71.6 °F 58% 30.04 in 10.0 mi NE 5.8 mph - N/A   Scattered Clouds
2:55 PM 87.8 °F 92.6 °F 69.8 °F 55% 30.03 in 10.0 mi Calm Calm - N/A   Scattered Clouds
3:15 PM 87.8 °F 92.6 °F 69.8 °F 55% 30.02 in 10.0 mi Calm Calm - N/A   Scattered Clouds
3:35 PM 87.8 °F 93.8 °F 71.6 °F 58% 30.02 in 10.0 mi Calm Calm - N/A   Scattered Clouds
3:55 PM 86.0 °F 91.8 °F 71.6 °F 62% 30.01 in 10.0 mi Calm Calm - N/A   Scattered Clouds
4:15 PM 86.0 °F 91.8 °F 71.6 °F 62% 30.01 in 10.0 mi Calm Calm - N/A   Clear
4:35 PM 87.8 °F 91.4 °F 68.0 °F 52% 30.01 in 10.0 mi Calm Calm - N/A   Clear
4:55 PM 87.8 °F 92.6 °F 69.8 °F 55% 30.01 in 10.0 mi North 5.8 mph - N/A   Scattered Clouds
5:15 PM 87.8 °F 92.6 °F 69.8 °F 55% 30.01 in 10.0 mi North 3.5 mph - N/A   Scattered Clouds
5:35 PM 87.8 °F 91.4 °F 68.0 °F 52% 30.02 in 10.0 mi North 4.6 mph - N/A   Clear
5:55 PM 87.8 °F 91.4 °F 68.0 °F 52% 30.02 in 10.0 mi Calm Calm - N/A   Clear
6:15 PM 87.8 °F 92.6 °F 69.8 °F 55% 30.02 in 10.0 mi Calm Calm - N/A   Clear
6:35 PM 87.8 °F 92.6 °F 69.8 °F 55% 30.02 in 10.0 mi Calm Calm - N/A   Clear
6:55 PM 86.0 °F 91.8 °F 71.6 °F 62% 30.01 in 10.0 mi Calm Calm - N/A Thunderstorm Clear
7:15 PM 82.4 °F 88.2 °F 73.4 °F 74% 30.02 in 10.0 mi Calm Calm - N/A Thunderstorm Clear
7:35 PM 80.6 °F 86.2 °F 75.2 °F 84% 30.02 in 10.0 mi Calm Calm - N/A Thunderstorm Clear
7:55 PM 78.8 °F - 77.0 °F 94% 30.03 in 10.0 mi Calm Calm - N/A   Clear
8:15 PM 78.8 °F - 77.0 °F 94% 30.05 in 10.0 mi Calm Calm - N/A   Clear
8:35 PM 78.8 °F - 75.2 °F 89% 30.06 in 10.0 mi North 9.2 mph - N/A Rain Light Rain
8:55 PM 77.0 °F - 75.2 °F 94% 30.07 in 10.0 mi NNW 5.8 mph - N/A Rain Light Rain
9:15 PM 75.2 °F - 75.2 °F 100% 30.08 in 10.0 mi NNW 6.9 mph - N/A Rain Light Rain
9:35 PM 75.2 °F - 75.2 °F 100% 30.07 in 10.0 mi Calm Calm - N/A   Scattered Clouds
9:55 PM 73.4 °F - 73.4 °F 100% 30.07 in 10.0 mi NNW 3.5 mph - N/A   Clear
10:15 PM 73.4 °F - 73.4 °F 100% 30.06 in 10.0 mi Calm Calm - N/A   Clear
10:35 PM 73.4 °F - 73.4 °F 100% 30.07 in 10.0 mi North 4.6 mph - N/A   Clear
10:55 PM 73.4 °F - 73.4 °F 100% 30.08 in 10.0 mi North 5.8 mph - N/A   Clear
11:15 PM 73.4 °F - 71.6 °F 94% 30.09 in 10.0 mi Calm Calm - N/A   Clear
11:35 PM 73.4 °F - 73.4 °F 100% 30.09 in 10.0 mi NNE 3.5 mph - N/A   Clear
11:55 PM 71.6 °F - 71.6 °F 100% 30.10 in 10.0 mi North 3.5 mph - N/A   Clear